• In Czech Republic
  • List of Countries
  • For 7 days
  • Water Temperature
  • Satellite Maps
  • Weather Map
  • Weather Widgets
  • user-avatar
    Login

    Hourly Weather Corozal

    Today, 17 January, Wednesday

    Time Temperature Precipitation Wind Pressure Humidity
    00:00 +20°C° 0 mm 2 mps 766 mmHg 70%
    01:00 +19°C° 0 mm 3 mps 766 mmHg 73%
    02:00 +19°C° 0 mm 3 mps 765 mmHg 77%
    03:00 +18°C° 0 mm 3 mps 765 mmHg 80%
    04:00 +18°C° 0 mm 3 mps 766 mmHg 82%
    05:00 +18°C° 0 mm 3 mps 766 mmHg 85%
    06:00 +18°C° 0 mm 3 mps 766 mmHg 87%
    07:00 +20°C° 0 mm 3 mps 766 mmHg 81%
    08:00 +21°C° 0 mm 4 mps 767 mmHg 76%
    09:00 +22°C° 0 mm 4 mps 767 mmHg 71%
    10:00 +25°C° 0 mm 4 mps 767 mmHg 64%
    11:00 +26°C° 0 mm 4 mps 767 mmHg 57%
    12:00 +28°C° 0 mm 3 mps 766 mmHg 50%
    13:00 +28°C° 0 mm 3 mps 766 mmHg 49%
    14:00 +29°C° 0 mm 3 mps 765 mmHg 48%
    15:00 +29°C° 0 mm 3 mps 764 mmHg 47%
    16:00 +27°C° 0 mm 3 mps 765 mmHg 53%
    17:00 +26°C° 0 mm 3 mps 765 mmHg 59%
    18:00 +24°C° 0 mm 3 mps 765 mmHg 66%
    19:00 +24°C° 0 mm 3 mps 765 mmHg 68%
    20:00 +22°C° 0 mm 3 mps 766 mmHg 71%
    21:00 +22°C° 0 mm 3 mps 766 mmHg 73%
    22:00 +21°C° 0.2 mm 3 mps 766 mmHg 78%
    23:00 +20°C° 0.2 mm 3 mps 766 mmHg 84%

    Tomorrow, 18 January, Thursday

    Time Temperature Precipitation Wind Pressure Humidity
    00:00 +20°C° 0.2 mm 3 mps 766 mmHg 89%
    01:00 +20°C° 0.1 mm 3 mps 766 mmHg 91%
    02:00 +19°C° 0.1 mm 3 mps 766 mmHg 94%
    03:00 +19°C° 0.1 mm 3 mps 765 mmHg 96%
    04:00 +19°C° 0 mm 3 mps 765 mmHg 96%
    05:00 +19°C° 0 mm 3 mps 765 mmHg 96%
    06:00 +19°C° 0 mm 3 mps 765 mmHg 96%
    07:00 +20°C° 0 mm 3 mps 766 mmHg 92%
    08:00 +20°C° 0 mm 3 mps 766 mmHg 88%
    09:00 +21°C° 0 mm 3 mps 767 mmHg 84%
    10:00 +22°C° 0.1 mm 3 mps 767 mmHg 81%
    11:00 +22°C° 0.1 mm 3 mps 766 mmHg 78%
    12:00 +24°C° 0.1 mm 3 mps 766 mmHg 75%
    13:00 +22°C° 0.4 mm 3 mps 766 mmHg 79%
    14:00 +22°C° 0.4 mm 3 mps 765 mmHg 84%
    15:00 +21°C° 0.4 mm 3 mps 764 mmHg 89%
    16:00 +21°C° 0.7 mm 3 mps 764 mmHg 90%
    17:00 +21°C° 0.7 mm 3 mps 764 mmHg 92%
    18:00 +20°C° 0.7 mm 3 mps 764 mmHg 94%
    19:00 +20°C° 0.2 mm 3 mps 765 mmHg 93%
    20:00 +20°C° 0.2 mm 3 mps 765 mmHg 93%
    21:00 +20°C° 0.2 mm 4 mps 766 mmHg 92%
    22:00 +19°C° 0 mm 3 mps 766 mmHg 91%
    23:00 +19°C° 0 mm 3 mps 766 mmHg 90%

    Day after tomorrow, 19 January, Friday

    Time Temperature Precipitation Wind Pressure Humidity
    00:00 +18°C° 0 mm 3 mps 766 mmHg 90%
    01:00 +18°C° 0 mm 3 mps 766 mmHg 90%
    02:00 +17°C° 0 mm 3 mps 765 mmHg 91%
    03:00 +17°C° 0 mm 3 mps 765 mmHg 92%
    04:00 +17°C° 0 mm 3 mps 765 mmHg 93%
    05:00 +16°C° 0 mm 2 mps 765 mmHg 94%
    06:00 +16°C° 0 mm 2 mps 765 mmHg 95%
    07:00 +18°C° 0 mm 2 mps 765 mmHg 88%
    08:00 +19°C° 0 mm 3 mps 766 mmHg 82%
    09:00 +21°C° 0 mm 3 mps 766 mmHg 76%
    10:00 +24°C° 0 mm 3 mps 766 mmHg 70%
    11:00 +25°C° 0 mm 3 mps 765 mmHg 64%
    12:00 +27°C° 0 mm 3 mps 765 mmHg 58%
    13:00 +27°C° 0 mm 3 mps 764 mmHg 59%
    14:00 +27°C° 0 mm 3 mps 763 mmHg 60%
    15:00 +26°C° 0 mm 3 mps 762 mmHg 61%
    16:00 +25°C° 0 mm 3 mps 762 mmHg 66%
    17:00 +24°C° 0 mm 3 mps 763 mmHg 71%
    18:00 +23°C° 0 mm 2 mps 763 mmHg 75%
    19:00 +21°C° 0 mm 2 mps 763 mmHg 79%
    20:00 +20°C° 0 mm 2 mps 764 mmHg 83%
    21:00 +19°C° 0 mm 2 mps 764 mmHg 87%
    22:00 +19°C° 0 mm 2 mps 764 mmHg 88%
    23:00 +19°C° 0 mm 1 mps 764 mmHg 90%

    20 January, Saturday

    Time Temperature Precipitation Wind Pressure Humidity
    00:00 +19°C° 0 mm 1 mps 764 mmHg 92%
    01:00 +19°C° 0 mm 1 mps 763 mmHg 93%
    02:00 +19°C° 0 mm 1 mps 763 mmHg 94%
    03:00 +18°C° 0 mm 1 mps 762 mmHg 95%
    04:00 +18°C° 0 mm 1 mps 762 mmHg 96%
    05:00 +17°C° 0 mm 2 mps 762 mmHg 97%
    06:00 +17°C° 0 mm 2 mps 762 mmHg 98%
    07:00 +19°C° 0 mm 2 mps 763 mmHg 90%
    08:00 +21°C° 0 mm 2 mps 763 mmHg 82%
    09:00 +24°C° 0 mm 2 mps 764 mmHg 73%
    10:00 +25°C° 0 mm 2 mps 763 mmHg 68%
    11:00 +27°C° 0 mm 2 mps 763 mmHg 63%
    12:00 +28°C° 0 mm 2 mps 763 mmHg 58%
    13:00 +29°C° 0 mm 2 mps 762 mmHg 57%
    14:00 +29°C° 0 mm 2 mps 761 mmHg 55%
    15:00 +30°C° 0 mm 2 mps 760 mmHg 54%
    16:00 +28°C° 0 mm 2 mps 760 mmHg 61%
    17:00 +26°C° 0 mm 2 mps 760 mmHg 69%
    18:00 +25°C° 0 mm 2 mps 761 mmHg 77%
    19:00 +24°C° 0 mm 2 mps 761 mmHg 82%
    20:00 +24°C° 0 mm 2 mps 761 mmHg 87%
    21:00 +23°C° 0 mm 2 mps 762 mmHg 92%
    22:00 +23°C° 0 mm 2 mps 762 mmHg 94%
    23:00 +21°C° 0 mm 2 mps 761 mmHg 96%

    21 January, Sunday

    Time Temperature Precipitation Wind Pressure Humidity
    00:00 +21°C° 0 mm 2 mps 761 mmHg 99%
    01:00 +21°C° 0.1 mm 2 mps 761 mmHg 99%
    02:00 +21°C° 0.1 mm 2 mps 760 mmHg 99%
    03:00 +21°C° 0.1 mm 2 mps 760 mmHg 99%
    04:00 +21°C° 0.1 mm 2 mps 760 mmHg 99%
    05:00 +21°C° 0.1 mm 2 mps 760 mmHg 99%
    06:00 +22°C° 0.1 mm 1 mps 760 mmHg 99%
    07:00 +24°C° 0 mm 2 mps 761 mmHg 93%
    08:00 +25°C° 0 mm 2 mps 761 mmHg 87%
    09:00 +27°C° 0 mm 2 mps 761 mmHg 81%
    10:00 +28°C° 0.2 mm 2 mps 761 mmHg 77%
    11:00 +29°C° 0.2 mm 2 mps 760 mmHg 73%
    12:00 +30°C° 0.2 mm 3 mps 760 mmHg 69%
    13:00 +30°C° 0.2 mm 3 mps 759 mmHg 68%
    14:00 +30°C° 0.2 mm 3 mps 758 mmHg 67%
    15:00 +30°C° 0.2 mm 3 mps 757 mmHg 65%
    16:00 +29°C° 0 mm 3 mps 758 mmHg 72%
    17:00 +27°C° 0 mm 2 mps 758 mmHg 79%
    18:00 +26°C° 0 mm 2 mps 758 mmHg 85%
    19:00 +25°C° 0 mm 2 mps 758 mmHg 89%
    20:00 +25°C° 0 mm 2 mps 759 mmHg 93%
    21:00 +24°C° 0 mm 2 mps 759 mmHg 97%
    22:00 +24°C° 0 mm 2 mps 759 mmHg 98%
    23:00 +24°C° 0 mm 1 mps 759 mmHg 98%

    22 January, Monday

    Time Temperature Precipitation Wind Pressure Humidity
    00:00 +23°C° 0 mm 1 mps 759 mmHg 98%
    01:00 +23°C° 0.1 mm 1 mps 759 mmHg 98%
    02:00 +23°C° 0.1 mm 1 mps 758 mmHg 98%
    03:00 +23°C° 0.1 mm 1 mps 758 mmHg 99%
    04:00 +23°C° 0 mm 1 mps 758 mmHg 99%
    05:00 +23°C° 0 mm 1 mps 759 mmHg 99%
    06:00 +23°C° 0 mm 1 mps 759 mmHg 99%
    07:00 +25°C° 0.1 mm 2 mps 760 mmHg 93%
    08:00 +26°C° 0.1 mm 2 mps 760 mmHg 87%
    09:00 +28°C° 0.1 mm 2 mps 761 mmHg 81%
    10:00 +29°C° 0.6 mm 2 mps 760 mmHg 78%
    11:00 +29°C° 0.6 mm 2 mps 760 mmHg 74%
    12:00 +30°C° 0.6 mm 2 mps 760 mmHg 71%
    13:00 +31°C° 0 mm 2 mps 759 mmHg 67%
    14:00 +31°C° 0 mm 2 mps 758 mmHg 63%
    15:00 +33°C° 0 mm 3 mps 758 mmHg 59%
    16:00 +30°C° 0 mm 2 mps 758 mmHg 67%
    17:00 +28°C° 0 mm 2 mps 759 mmHg 75%
    18:00 +27°C° 0 mm 1 mps 759 mmHg 83%
    19:00 +26°C° 0 mm 1 mps 760 mmHg 87%
    20:00 +25°C° 0 mm 1 mps 760 mmHg 92%
    21:00 +24°C° 0 mm 1 mps 761 mmHg 96%
    22:00 +24°C° 0.9 mm 1 mps 761 mmHg 97%
    23:00 +24°C° 0.9 mm 1 mps 761 mmHg 98%
    Show more